Miscellaneous Local Product
Issued by NWS North Platte, NE

Home | Current Version | Previous Version | Graphics & Text | Print | Product List | Glossary On
Versions: 1 2 3 4 5 6 7 8 9 10 11 12 13 14 15 16 17 18 19 20 21 22 23 24 25 26 27 28 29 30 31 32 33 34 35 36 37 38 39 40 41 42 43 44 45 46 47 48 49 50
000
AXUS43 KLBF 202210
MISLBF


WESTERN AND NORTH CENTRAL NEBRASKA HOURLY WEATHER ROUNDUP
NATIONAL WEATHER SERVICE NORTH PLATTE NE
500 PM CDT SAT SEP 20 2014

***STATIONS NOT REPORTING VARIABLES SUCH AS SKY/WEATHER OR
PRESSURE ARE PROVIDED BY THE NEBRASKA DEPARTMENT OF
ROADS...RAWS...AND APRS NETWORKS...AND ARE NOT UNDER
NATIONAL WEATHER SERVICE QUALITY CONTROL***

...OBSERVATIONS IN AND NEAR THE EASTERN PANHANDLE OF NEBRASKA...

CITY           SKY/WX    TMP DP  RH WIND       PRES   REMARKS
PINE RIDGE     SUNNY     78  40  25 N18G29    30.14R
CHADRON        SUNNY     82  46  28 N10       30.14R
ALLIANCE       SUNNY     81  44  27 N16       30.15S
SIDNEY         SUNNY     83  45  26 NE7       30.19F
WHITECLAY        N/A     77  41  27 E14         N/A
RUSHVILLE        N/A     82  34  18 NE23        N/A
CRESCENT LAKE    N/A     81  44  26 N14G23      N/A
LISCO            N/A     87  35  15 NW12        N/A
BIG SPRINGS      N/A     83  52  34 N5          N/A
$$

...OBSERVATIONS IN NORTH CENTRAL NEBRASKA...

CITY           SKY/WX    TMP DP  RH WIND       PRES   REMARKS
VALENTINE      SUNNY     81  42  25 N26G36    30.07S
THEDFORD       MOSUNNY   83  50  31 N15G21    30.08S
AINSWORTH      SUNNY     79  44  28 NW20G30   30.07R
O`NEILL        SUNNY     82  50  32 NW20G29   30.00S
ORD            SUNNY     83  49  30 NW16G25   29.99S
BROKEN BOW     SUNNY     86  48  26 NW14G25   30.04S
SPRINGVIEW       N/A     82  48  30 NW15G24     N/A
ROSE             N/A     86  54  32 W16         N/A
NEWPORT          N/A     82  48  30 NW16        N/A
COMSTOCK         N/A     90  48  23 SW13        N/A
CHAMBERS         N/A     82  49  31 W8G16       N/A
$$

...OBSERVATIONS IN SOUTHWEST NEBRASKA AND FAR NORTHEAST COLORADO...

CITY           SKY/WX    TMP DP  RH WIND       PRES   REMARKS
WRAY           FAIR      85  46  25 N8        30.14S
HOLYOKE        FAIR      81  46  30 N9        30.15S
IMPERIAL       SUNNY     86  47  25 N14       30.11S
OGALLALA       SUNNY     86  49  28 NW10      30.11S
NORTH PLATTE   SUNNY     83  52  34 NW14      30.06S
MCCOOK         SUNNY     87  48  25 N9G18     30.06S
LEXINGTON      SUNNY     85  50  29 NW10      30.04S
PAXTON           N/A     84  51  31 NW7         N/A
SUTHERLAND       N/A     89  44  20 E9          N/A
BRADY            N/A     86  52  30 CALM        N/A
GOTHENBURG       N/A     85  45  24 N7          N/A
CALLAWAY         N/A     84  53  34 NW6         N/A
$$

...SOME WEATHER OBSERVATIONS FROM AROUND THE REGION...

CITY           SKY/WX    TMP DP  RH WIND       PRES   REMARKS
DENVER         MOSUNNY   79  45  29 E8        30.23F
LARAMIE        SUNNY     75  33  21 N8        30.33S
CHEYENNE       SUNNY     78  42  27 N9G18     30.27S
SCOTTSBLUFF    SUNNY     85  45  24 N15       30.16S
RAPID CITY     SUNNY     76  40  27 N26G37    30.16R
PIERRE         SUNNY     78  42  27 NW30G38   30.00R
WINNER         FAIR      81  44  27 NW32G44   30.01R
SIOUX FALLS    MOSUNNY   81  48  31 NW23G31   29.85S
OMAHA          MOSUNNY   84  57  39 NW10      29.91S
GRAND ISLAND   SUNNY     86  52  30 N10       30.00S
KANSAS CITY    CLOUDY    78  72  81 S8        29.93F
WICHITA        MOSUNNY   93  58  30 W10       29.94F HX  92
HAYS           SUNNY     86  66  51 N14G20    29.98S
LIBERAL        PTSUNNY   91  61  35 SE8       30.01S HX  91
GOODLAND       SUNNY     83  50  31 NE9       30.13R
$$



USA.gov is the U.S. government's official web portal to all federal, state and local government web resources and services.